• En España
  • Lista de países
  • Para 7 días
  • Temperatura del agua
  • Mapa Satelital
  • El tiempo en el mapa
  • Informadores
  • user-avatar
    Iniciar sesión

    Tiempo cada hora Vitebsk

    Hoy, 14 Agosto, Martes

    Tiempo Temperatura Precipitaciones Viento Presión Humedad
    00:00 +13°C° 0 mm 1 mps 745 mmHg 95%
    01:00 +13°C° 0 mm 1 mps 745 mmHg 94%
    02:00 +13°C° 0 mm 1 mps 745 mmHg 94%
    03:00 +13°C° 0 mm 1 mps 745 mmHg 95%
    04:00 +12°C° 0 mm 0 mps 745 mmHg 95%
    05:00 +11°C° 0 mm 0 mps 745 mmHg 95%
    06:00 +14°C° 0 mm 1 mps 745 mmHg 90%
    07:00 +16°C° 0 mm 1 mps 745 mmHg 86%
    08:00 +19°C° 0 mm 1 mps 746 mmHg 81%
    09:00 +21°C° 0 mm 1 mps 746 mmHg 75%
    10:00 +22°C° 0 mm 1 mps 746 mmHg 69%
    11:00 +24°C° 0 mm 2 mps 745 mmHg 63%
    12:00 +25°C° 0,2 mm 2 mps 745 mmHg 62%
    13:00 +25°C° 0,2 mm 2 mps 745 mmHg 61%
    14:00 +26°C° 0,2 mm 2 mps 745 mmHg 60%
    15:00 +26°C° 0,4 mm 2 mps 745 mmHg 64%
    16:00 +26°C° 0,4 mm 2 mps 745 mmHg 68%
    17:00 +25°C° 0,4 mm 2 mps 744 mmHg 73%
    18:00 +24°C° 0,3 mm 2 mps 744 mmHg 77%
    19:00 +21°C° 0,3 mm 2 mps 744 mmHg 82%
    20:00 +20°C° 0,3 mm 3 mps 743 mmHg 87%
    21:00 +19°C° 0,2 mm 3 mps 743 mmHg 87%
    22:00 +19°C° 0,2 mm 3 mps 743 mmHg 88%
    23:00 +19°C° 0,2 mm 4 mps 743 mmHg 88%

    Mañana, 15 Agosto, Miércoles

    Tiempo Temperatura Precipitaciones Viento Presión Humedad
    00:00 +19°C° 0,5 mm 4 mps 742 mmHg 90%
    01:00 +19°C° 0,5 mm 4 mps 742 mmHg 91%
    02:00 +19°C° 0,5 mm 4 mps 741 mmHg 93%
    03:00 +19°C° 0,6 mm 4 mps 741 mmHg 94%
    04:00 +19°C° 0,6 mm 4 mps 741 mmHg 94%
    05:00 +19°C° 0,6 mm 3 mps 741 mmHg 95%
    06:00 +19°C° 0,1 mm 4 mps 741 mmHg 94%
    07:00 +19°C° 0,1 mm 4 mps 741 mmHg 93%
    08:00 +20°C° 0,1 mm 4 mps 741 mmHg 92%
    09:00 +21°C° 0,1 mm 4 mps 742 mmHg 85%
    10:00 +22°C° 0,1 mm 4 mps 742 mmHg 79%
    11:00 +23°C° 0,1 mm 4 mps 742 mmHg 72%
    12:00 +25°C° 0 mm 4 mps 742 mmHg 68%
    13:00 +25°C° 0 mm 4 mps 742 mmHg 64%
    14:00 +26°C° 0 mm 4 mps 743 mmHg 59%
    15:00 +25°C° 0,2 mm 4 mps 743 mmHg 65%
    16:00 +25°C° 0,2 mm 3 mps 743 mmHg 70%
    17:00 +24°C° 0,2 mm 3 mps 743 mmHg 76%
    18:00 +21°C° 0,1 mm 2 mps 743 mmHg 80%
    19:00 +20°C° 0,1 mm 2 mps 743 mmHg 85%
    20:00 +19°C° 0,1 mm 2 mps 743 mmHg 89%
    21:00 +18°C° 0 mm 2 mps 744 mmHg 91%
    22:00 +18°C° 0 mm 2 mps 744 mmHg 92%
    23:00 +17°C° 0 mm 2 mps 744 mmHg 94%

    Pasado mañana, 16 Agosto, Jueves

    Tiempo Temperatura Precipitaciones Viento Presión Humedad
    00:00 +17°C° 0 mm 2 mps 744 mmHg 95%
    01:00 +17°C° 0 mm 2 mps 744 mmHg 95%
    02:00 +16°C° 0 mm 1 mps 744 mmHg 96%
    03:00 +16°C° 0,1 mm 1 mps 745 mmHg 97%
    04:00 +16°C° 0,1 mm 1 mps 745 mmHg 97%
    05:00 +16°C° 0,1 mm 1 mps 745 mmHg 97%
    06:00 +18°C° 0 mm 1 mps 746 mmHg 95%
    07:00 +19°C° 0 mm 1 mps 746 mmHg 93%
    08:00 +20°C° 0 mm 1 mps 746 mmHg 90%
    09:00 +20°C° 0,1 mm 1 mps 747 mmHg 88%
    10:00 +20°C° 0,1 mm 2 mps 747 mmHg 86%
    11:00 +20°C° 0,1 mm 2 mps 747 mmHg 84%
    12:00 +21°C° 0,1 mm 2 mps 747 mmHg 80%
    13:00 +21°C° 0,1 mm 3 mps 747 mmHg 75%
    14:00 +22°C° 0,1 mm 3 mps 748 mmHg 71%
    15:00 +22°C° 0 mm 3 mps 748 mmHg 70%
    16:00 +22°C° 0 mm 3 mps 748 mmHg 70%
    17:00 +22°C° 0 mm 3 mps 748 mmHg 69%
    18:00 +20°C° 0 mm 2 mps 748 mmHg 75%
    19:00 +18°C° 0 mm 2 mps 748 mmHg 81%
    20:00 +18°C° 0 mm 1 mps 749 mmHg 87%
    21:00 +16°C° 0 mm 1 mps 749 mmHg 89%
    22:00 +16°C° 0 mm 1 mps 749 mmHg 90%
    23:00 +15°C° 0 mm 1 mps 749 mmHg 91%

    17 Agosto, Viernes

    Tiempo Temperatura Precipitaciones Viento Presión Humedad
    00:00 +15°C° 0 mm 2 mps 749 mmHg 92%
    01:00 +14°C° 0 mm 2 mps 749 mmHg 93%
    02:00 +14°C° 0 mm 2 mps 750 mmHg 94%
    03:00 +14°C° 0 mm 2 mps 750 mmHg 94%
    04:00 +14°C° 0 mm 2 mps 750 mmHg 94%
    05:00 +13°C° 0 mm 2 mps 750 mmHg 95%
    06:00 +15°C° 0 mm 2 mps 750 mmHg 88%
    07:00 +17°C° 0 mm 2 mps 750 mmHg 82%
    08:00 +18°C° 0 mm 2 mps 751 mmHg 76%
    09:00 +20°C° 0 mm 3 mps 751 mmHg 70%
    10:00 +21°C° 0 mm 3 mps 751 mmHg 65%
    11:00 +24°C° 0 mm 3 mps 751 mmHg 59%
    12:00 +24°C° 0 mm 3 mps 750 mmHg 58%
    13:00 +25°C° 0 mm 3 mps 750 mmHg 57%
    14:00 +26°C° 0 mm 3 mps 750 mmHg 56%
    15:00 +25°C° 0 mm 3 mps 750 mmHg 58%
    16:00 +25°C° 0 mm 3 mps 750 mmHg 60%
    17:00 +25°C° 0 mm 2 mps 749 mmHg 63%
    18:00 +23°C° 0 mm 2 mps 750 mmHg 69%
    19:00 +20°C° 0 mm 2 mps 750 mmHg 76%
    20:00 +18°C° 0 mm 2 mps 750 mmHg 82%
    21:00 +18°C° 0 mm 2 mps 750 mmHg 85%
    22:00 +17°C° 0 mm 2 mps 750 mmHg 87%
    23:00 +16°C° 0 mm 2 mps 750 mmHg 90%

    18 Agosto, Sábado

    Tiempo Temperatura Precipitaciones Viento Presión Humedad
    00:00 +16°C° 0 mm 2 mps 750 mmHg 91%
    01:00 +16°C° 0 mm 2 mps 750 mmHg 92%
    02:00 +15°C° 0 mm 2 mps 750 mmHg 93%
    03:00 +15°C° 0 mm 2 mps 750 mmHg 93%
    04:00 +15°C° 0 mm 2 mps 750 mmHg 94%
    05:00 +15°C° 0 mm 2 mps 750 mmHg 94%
    06:00 +16°C° 0 mm 2 mps 750 mmHg 88%
    07:00 +18°C° 0 mm 2 mps 750 mmHg 83%
    08:00 +20°C° 0 mm 3 mps 750 mmHg 77%
    09:00 +21°C° 0 mm 3 mps 750 mmHg 72%
    10:00 +24°C° 0 mm 3 mps 750 mmHg 68%
    11:00 +25°C° 0 mm 3 mps 750 mmHg 63%
    12:00 +26°C° 0 mm 3 mps 749 mmHg 62%
    13:00 +27°C° 0 mm 4 mps 749 mmHg 61%
    14:00 +27°C° 0 mm 4 mps 749 mmHg 60%
    15:00 +27°C° 0,2 mm 3 mps 748 mmHg 64%
    16:00 +26°C° 0,2 mm 3 mps 748 mmHg 68%
    17:00 +26°C° 0,2 mm 3 mps 748 mmHg 73%
    18:00 +24°C° 0,2 mm 3 mps 748 mmHg 79%
    19:00 +23°C° 0,2 mm 2 mps 748 mmHg 85%
    20:00 +20°C° 0,2 mm 2 mps 748 mmHg 91%
    21:00 +19°C° 0 mm 2 mps 748 mmHg 93%
    22:00 +19°C° 0 mm 2 mps 747 mmHg 94%
    23:00 +20°C° 0 mm 1 mps 747 mmHg 95%

    19 Agosto, Domingo

    Tiempo Temperatura Precipitaciones Viento Presión Humedad
    00:00 +19°C° 0 mm 1 mps 747 mmHg 95%
    01:00 +19°C° 0 mm 1 mps 747 mmHg 96%
    02:00 +19°C° 0 mm 1 mps 747 mmHg 96%
    03:00 +18°C° 0 mm 1 mps 747 mmHg 96%
    04:00 +18°C° 0 mm 1 mps 747 mmHg 97%
    05:00 +18°C° 0 mm 1 mps 747 mmHg 97%
    06:00 +19°C° 0,1 mm 1 mps 747 mmHg 93%
    07:00 +21°C° 0,1 mm 1 mps 747 mmHg 90%
    08:00 +21°C° 0,1 mm 2 mps 747 mmHg 86%
    09:00 +23°C° 0,2 mm 2 mps 747 mmHg 80%
    10:00 +24°C° 0,2 mm 2 mps 747 mmHg 73%
    11:00 +26°C° 0,2 mm 3 mps 747 mmHg 66%
    12:00 +26°C° 0,1 mm 3 mps 747 mmHg 64%
    13:00 +26°C° 0,1 mm 3 mps 747 mmHg 62%
    14:00 +27°C° 0,1 mm 3 mps 747 mmHg 60%
    15:00 +26°C° 0,2 mm 3 mps 747 mmHg 62%
    16:00 +25°C° 0,2 mm 3 mps 747 mmHg 64%
    17:00 +25°C° 0,2 mm 3 mps 747 mmHg 66%
    18:00 +22°C° 0,1 mm 3 mps 747 mmHg 70%
    19:00 +20°C° 0,1 mm 2 mps 747 mmHg 75%
    20:00 +18°C° 0,1 mm 2 mps 747 mmHg 79%
    21:00 +17°C° 0 mm 2 mps 747 mmHg 83%
    22:00 +16°C° 0 mm 2 mps 747 mmHg 86%
    23:00 +16°C° 0 mm 2 mps 747 mmHg 90%
    Mostrar más